Location: Andrest
(43.3200°N, 0.0641°E)
Time: 21:12:13
(UTC+00:00)

Cosmos 1535 Rocket - Pass Details

Date: 01 December 2020
Orbit: 949 x 1003 km, 83.0° (Epoch: 20 January)

Event Time Altitude Azimuth Distance (km) Brightness Sun altitude
Rises 18:37:27 0° 354° (N) 3,633 7.5 -23.4°
Reaches altitude 10° 18:40:00 10° 358° (N) 2,682 6.7 -23.9°
Maximum altitude 18:46:04 63° 80° (E) 1,054 4.3 -25.0°
Drops below altitude 10° 18:52:07 10° 161° (SSE) 2,673 6.7 -26.1°
Sets 18:54:38 0° 164° (SSE) 3,620 7.4 -26.5°
